Location: Katp?dip?lem
(16.6502°N, 80.5643°E)
Time: 00:15:36
(UTC+00:00)

GPS 2-15 Rocket1 - Pass Details

Date: 14 April 2024
Orbit: 616 x 664 km, 19.8° (Epoch: 23 May)

Event Time Altitude Azimuth Distance (km) Brightness Sun altitude
Exits shadow 00:02:28 - 255° (WSW) 2,351 5.3 -5.7°
Reaches altitude 10° 00:03:13 10° 255° (WSW) 2,068 5.1 -5.5°
Maximum altitude 00:08:06 83° 168° (SSE) 664 3.3 -4.3°
Drops below altitude 10° 00:12:57 10° 80° (E) 2,052 7.8 -3.2°
Sets 00:15:19 0° 79° (E) 2,956 10.4 -2.6°
